Location: pereira
(4.8150°N, 75.7450°W)
Time: 18:30:11
(UTC-04:00)

ISS - Visible Passes

Search period start: 25 June 2017 00:00
Search period end: 05 July 2017 00:00
Orbit: 401 x 408 km, 51.6° (Epoch: 26 June)

Date Brightness Start Highest point End Pass type
(mag) Time Alt. Az. Time Alt. Az. Time Alt. Az.
26 Jun -3.0 06:08:49 10° SSW 06:11:57 46° SE 06:15:05 10° NE visible
27 Jun -1.5 05:19:15 16° SE 05:19:51 17° SE 05:22:03 10° E visible
28 Jun -3.0 06:02:25 22° WSW 06:03:57 36° NW 06:06:58 10° NNE visible
29 Jun -2.5 05:12:50 39° NE 05:12:50 39° NE 05:15:02 10° NE visible
30 Jun -1.3 05:55:51 10° NW 05:55:59 10° NW 05:56:09 10° NW visible
01 Jul -0.9 05:06:06 12° N 05:06:06 12° N 05:06:29 10° N visible
